Weather History for Firenze / Peretola, Italy

Change the Weather History Date:

Saturday, October 19, 2013

  Actual Average Record
Temperature  
Mean Temperature 65 °F -  
Max Temperature 73 °F 63 °F - ()
Min Temperature 57 °F 45 °F - ()
Growing Degree Days 15 (Base 50)    
Moisture  
Dew Point 59 °F    
Average Humidity 83    
Maximum Humidity 100    
Minimum Humidity 57    
Precipitation  
Precipitation 0.00 in 0.13 in - ()
Sea Level Pressure  
Sea Level Pressure 30.15 in    
Wind  
Wind Speed 2 mph ()    
Max Wind Speed 6 mph    
Max Gust Speed -    
Visibility 5.9 miles    
Events      
T = Trace of Precipitation, MM = Missing Value Source: Averaged Metar Reports

Daily Weather History Graph

Daily Weather History Graph

Search for Another Location

Airport:

Trip Planner

Search our weather history database for the weather conditions in past years. The results will help you decide how hot, cold, wet, or windy it might be!

Date:

Astronomy

Oct. 19, 2013 Rise Set
Actual Time 7:34 AM CEST 6:25 PM CEST
Civil Twilight 7:05 AM CEST 6:54 PM CEST
Nautical Twilight 6:31 AM CEST 7:27 PM CEST
Astronomical Twilight 5:58 AM CEST 8:00 PM CEST
Moon 6:39 PM CEST (10/19) 7:56 AM CEST (10/19)
Length of Visible Light 11h 48m
Length of Day
10h 50m
Full, 100% of the Moon is Illuminated
Oct 19
Full
Oct 27
Last Quarter
Nov 3
New
Nov 10
First Quarter
Nov 17
Full

Hourly Weather History & Observations

Time (CEST) Temp. Dew Point Humidity Pressure Visibility Wind Dir Wind Speed Gust Speed Precip Events Conditions
12:20 AM 60.8 °F 59.0 °F 94% 30.09 in 6.2 mi Variable 2.3 mph - N/A   Partly Cloudy
1:20 AM 60.8 °F 59.0 °F 94% 30.09 in 6.2 mi East 3.5 mph - N/A   Partly Cloudy
1:50 AM 60.8 °F 59.0 °F 94% 30.09 in 6.2 mi Variable 1.2 mph - N/A   Partly Cloudy
2:20 AM 59.0 °F 57.2 °F 94% 30.09 in 6.2 mi Calm Calm - N/A   Scattered Clouds
2:50 AM 59.0 °F 57.2 °F 94% 30.09 in 5.0 mi South 2.3 mph - N/A   Partly Cloudy
3:20 AM 57.2 °F 57.2 °F 100% 30.09 in 5.0 mi Variable 2.3 mph - N/A   Partly Cloudy
3:50 AM 57.2 °F 57.2 °F 100% 30.09 in 5.0 mi Calm Calm - N/A   Mostly Cloudy
4:20 AM 59.0 °F 57.2 °F 94% 30.09 in 5.0 mi East 1.2 mph - N/A   Mostly Cloudy
4:50 AM 57.2 °F 55.4 °F 94% 30.09 in 5.0 mi Variable 1.2 mph - N/A   Partly Cloudy
5:20 AM 57.2 °F 57.2 °F 100% 30.09 in 5.0 mi Variable 2.3 mph - N/A   Partly Cloudy
5:50 AM 57.2 °F 55.4 °F 94% 30.12 in 5.0 mi Calm Calm - N/A   Partly Cloudy
6:20 AM 57.2 °F 57.2 °F 100% 30.12 in 5.0 mi Calm Calm - N/A   Scattered Clouds
6:50 AM 57.2 °F 55.4 °F 94% 30.12 in 5.0 mi Calm Calm - N/A   Mostly Cloudy
7:20 AM 57.2 °F 57.2 °F 100% 30.12 in 5.0 mi Variable 1.2 mph - N/A   Mostly Cloudy
7:50 AM 57.2 °F 57.2 °F 100% 30.12 in 5.0 mi Variable 1.2 mph - N/A   Mostly Cloudy
8:20 AM 57.2 °F 57.2 °F 100% 30.15 in 5.0 mi Calm Calm - N/A   Mostly Cloudy
8:50 AM 59.0 °F 57.2 °F 94% 30.15 in 6.2 mi South 2.3 mph - N/A   Scattered Clouds
9:20 AM 60.8 °F 59.0 °F 94% 30.15 in 6.2 mi Calm Calm - N/A   Partly Cloudy
9:50 AM 64.4 °F 57.2 °F 77% 30.18 in 6.2 mi Calm Calm - N/A   Partly Cloudy
10:20 AM 64.4 °F 59.0 °F 83% 30.18 in 6.2 mi Variable 2.3 mph - N/A   Partly Cloudy
10:50 AM 66.2 °F 59.0 °F 78% 30.18 in 6.2 mi Variable 1.2 mph - N/A   Partly Cloudy
11:20 AM 68.0 °F 59.0 °F 73% 30.18 in 6.2 mi Variable 1.2 mph - N/A   Partly Cloudy
11:50 AM 69.8 °F 60.8 °F 73% 30.18 in 6.2 mi Variable 2.3 mph - N/A   Partly Cloudy
12:20 PM 71.6 °F 60.8 °F 69% 30.18 in 6.2 mi Variable 1.2 mph - N/A   Scattered Clouds
12:50 PM 71.6 °F 60.8 °F 69% 30.18 in 6.2 mi Variable 3.5 mph - N/A   Scattered Clouds
1:20 PM 71.6 °F 57.2 °F 60% 30.18 in 6.2 mi SSW 3.5 mph - N/A   Scattered Clouds
1:50 PM 73.4 °F 57.2 °F 57% 30.15 in 6.2 mi North 1.2 mph - N/A   Scattered Clouds
2:20 PM 73.4 °F 59.0 °F 61% 30.15 in 6.2 mi Variable 2.3 mph - N/A   Scattered Clouds
2:50 PM 73.4 °F 57.2 °F 57% 30.15 in 6.2 mi Variable 1.2 mph - N/A   Scattered Clouds
3:20 PM 73.4 °F 59.0 °F 61% 30.15 in 6.2 mi Variable 2.3 mph - N/A   Mostly Cloudy
3:50 PM 71.6 °F 60.8 °F 69% 30.15 in 6.2 mi West 4.6 mph - N/A   Mostly Cloudy
4:20 PM 73.4 °F 60.8 °F 65% 30.15 in 6.2 mi WNW 4.6 mph - N/A   Scattered Clouds
4:50 PM 73.4 °F 59.0 °F 61% 30.15 in 6.2 mi Variable 2.3 mph - N/A   Scattered Clouds
5:20 PM 73.4 °F 59.0 °F 61% 30.15 in 6.2 mi Calm Calm - N/A   Partly Cloudy
5:50 PM 71.6 °F 59.0 °F 64% 30.15 in 6.2 mi SSW 2.3 mph - N/A   Scattered Clouds
6:20 PM 69.8 °F 60.8 °F 73% 30.18 in 6.2 mi Variable 2.3 mph - N/A   Mostly Cloudy
6:50 PM 69.8 °F 60.8 °F 73% 30.18 in 6.2 mi Variable 1.2 mph - N/A   Mostly Cloudy
7:20 PM 68.0 °F 60.8 °F 78% 30.18 in 6.2 mi Calm Calm - N/A   Mostly Cloudy
7:50 PM 68.0 °F 60.8 °F 78% 30.18 in 6.2 mi East 3.5 mph - N/A   Mostly Cloudy
8:20 PM 66.2 °F 59.0 °F 78% 30.21 in 6.2 mi East 3.5 mph - N/A   Partly Cloudy
8:50 PM 64.4 °F 59.0 °F 83% 30.21 in 6.2 mi East 4.6 mph - N/A   Partly Cloudy
9:20 PM 60.8 °F 59.0 °F 94% 30.21 in 6.2 mi East 3.5 mph - N/A   Partly Cloudy
9:50 PM 62.6 °F 59.0 °F 88% 30.21 in 6.2 mi East 5.8 mph - N/A   Partly Cloudy
10:20 PM 60.8 °F 59.0 °F 94% 30.21 in 6.2 mi East 3.5 mph - N/A   Scattered Clouds
10:50 PM 60.8 °F 57.2 °F 88% 30.24 in 6.2 mi ENE 4.6 mph - N/A   Scattered Clouds
11:20 PM 60.8 °F 59.0 °F 94% 30.24 in 6.2 mi East 3.5 mph - N/A   Scattered Clouds
11:50 PM 60.8 °F 59.0 °F 94% 30.24 in 6.2 mi East 2.3 mph - N/A   Scattered Clouds